Total_Precipitation_Accumulation
0.34 0.35 0.32 0.32 0.31 0.33 0.33 0.30 0.31 0.29 0.28 0.23 0.20 0.19 0.17 0.17 0.19 0.23 0.23 0.24 0.27 0.33 0.39 0.45 0.50 0.57 0.63 0.65 0.70 0.71 0.75 0.85 0.80 0.67 0.78 0.86 0.78 0.62 0.53 0.53 0.54 0.55 0.52
0.26 0.25 0.26 0.28 0.27 0.28 0.27 0.26 0.27 0.27 0.25 0.23 0.21 0.19 0.16 0.16 0.21 0.25 0.25 0.25 0.28 0.32 0.39 0.50 0.53 0.54 0.60 0.67 0.79 0.81 0.83 0.96 0.94 0.80 0.86 0.95 0.87 0.76 0.63 0.55 0.45 0.43 0.45
0.20 0.18 0.21 0.27 0.27 0.25 0.22 0.20 0.22 0.24 0.25 0.24 0.24 0.23 0.20 0.19 0.20 0.22 0.27 0.30 0.35 0.38 0.42 0.50 0.56 0.64 0.65 0.70 0.79 0.82 0.87 1.03 1.08 0.99 0.97 1.08 1.11 0.90 0.70 0.54 0.44 0.45 0.40
0.26 0.25 0.26 0.30 0.30 0.27 0.20 0.18 0.19 0.23 0.24 0.28 0.32 0.33 0.30 0.26 0.25 0.25 0.27 0.30 0.36 0.41 0.49 0.50 0.54 0.64 0.72 0.77 0.84 0.95 1.02 1.10 1.19 1.16 1.17 1.28 1.28 1.14 0.91 0.64 0.54 0.52 0.47
0.37 0.40 0.43 0.44 0.40 0.33 0.29 0.28 0.30 0.33 0.36 0.46 0.48 0.46 0.43 0.38 0.30 0.29 0.32 0.31 0.37 0.38 0.43 0.49 0.49 0.53 0.61 0.73 0.79 0.91 1.07 1.22 1.38 1.44 1.43 1.59 1.55 1.38 1.11 0.81 0.68 0.60 0.55
0.39 0.42 0.45 0.50 0.48 0.46 0.44 0.45 0.49 0.53 0.61 0.65 0.61 0.59 0.59 0.45 0.38 0.34 0.31 0.33 0.35 0.39 0.43 0.49 0.49 0.46 0.47 0.52 0.61 0.74 0.88 1.06 1.26 1.45 1.58 1.68 1.74 1.61 1.41 1.15 0.83 0.63 0.56
0.48 0.56 0.59 0.60 0.59 0.59 0.62 0.63 0.63 0.65 0.69 0.71 0.69 0.68 0.65 0.61 0.48 0.35 0.29 0.30 0.34 0.39 0.44 0.47 0.41 0.35 0.41 0.44 0.49 0.54 0.62 0.73 0.88 1.10 1.29 1.40 1.58 1.71 1.59 1.28 1.01 0.80 0.64
0.49 0.57 0.63 0.70 0.72 0.75 0.82 0.83 0.83 0.83 0.81 0.79 0.75 0.75 0.75 0.71 0.59 0.45 0.39 0.34 0.36 0.38 0.42 0.44 0.43 0.39 0.41 0.47 0.52 0.51 0.50 0.52 0.60 0.70 0.84 1.07 1.28 1.50 1.56 1.45 1.34 1.09 0.83
0.59 0.66 0.70 0.74 0.80 0.84 0.86 0.87 0.89 0.92 0.87 0.87 0.88 0.88 0.87 0.83 0.69 0.50 0.42 0.40 0.44 0.44 0.46 0.48 0.52 0.46 0.42 0.38 0.44 0.45 0.45 0.44 0.43 0.51 0.62 0.82 1.06 1.23 1.42 1.42 1.31 1.18 0.94
0.70 0.70 0.68 0.75 0.81 0.79 0.78 0.81 0.80 0.82 0.79 0.81 0.83 0.89 0.92 0.90 0.79 0.56 0.48 0.45 0.49 0.52 0.57 0.57 0.53 0.44 0.40 0.32 0.37 0.42 0.40 0.39 0.44 0.45 0.50 0.59 0.71 0.96 1.17 1.21 1.13 1.06 0.93
0.61 0.58 0.58 0.65 0.72 0.72 0.75 0.76 0.71 0.68 0.69 0.72 0.77 0.80 0.86 0.86 0.73 0.45 0.38 0.42 0.50 0.56 0.57 0.57 0.58 0.49 0.38 0.30 0.31 0.36 0.35 0.38 0.48 0.52 0.53 0.59 0.69 0.82 1.01 1.10 1.09 0.97 0.85
0.44 0.42 0.42 0.46 0.47 0.48 0.57 0.61 0.63 0.67 0.67 0.69 0.77 0.82 0.88 0.90 0.78 0.54 0.33 0.33 0.45 0.55 0.59 0.62 0.64 0.54 0.43 0.36 0.29 0.27 0.27 0.30 0.40 0.47 0.50 0.52 0.59 0.67 0.83 1.05 1.17 1.09 0.91
0.37 0.37 0.37 0.36 0.40 0.45 0.50 0.49 0.50 0.54 0.54 0.58 0.76 0.89 0.94 0.97 0.87 0.61 0.41 0.32 0.37 0.49 0.58 0.69 0.70 0.57 0.51 0.45 0.37 0.29 0.28 0.28 0.35 0.43 0.42 0.43 0.48 0.57 0.75 1.05 1.29 1.43 1.29
0.39 0.39 0.38 0.37 0.37 0.38 0.45 0.45 0.43 0.43 0.43 0.50 0.70 0.85 0.93 0.94 0.88 0.71 0.54 0.43 0.41 0.47 0.54 0.65 0.72 0.72 0.68 0.62 0.52 0.40 0.31 0.32 0.34 0.41 0.46 0.50 0.58 0.68 0.80 0.88 1.10 1.29 1.36
0.37 0.36 0.35 0.36 0.36 0.35 0.41 0.43 0.37 0.38 0.35 0.38 0.55 0.78 0.85 0.78 0.65 0.52 0.46 0.48 0.47 0.53 0.59 0.76 0.90 0.95 0.97 0.91 0.78 0.65 0.54 0.50 0.47 0.48 0.58 0.62 0.68 0.71 0.74 0.79 0.94 1.09 1.10
0.40 0.36 0.34 0.34 0.35 0.36 0.39 0.39 0.32 0.25 0.22 0.20 0.26 0.41 0.52 0.47 0.38 0.35 0.33 0.34 0.32 0.34 0.46 0.71 0.99 1.09 1.13 1.13 1.03 0.87 0.75 0.69 0.65 0.65 0.70 0.72 0.72 0.77 0.80 0.85 0.92 1.02 1.01
0.43 0.38 0.35 0.32 0.32 0.31 0.33 0.38 0.42 0.38 0.23 0.17 0.16 0.19 0.25 0.26 0.28 0.35 0.36 0.30 0.25 0.23 0.33 0.54 0.83 1.05 1.15 1.20 1.15 0.99 0.84 0.80 0.83 0.80 0.78 0.77 0.77 0.78 0.84 0.89 0.92 0.97 1.01
0.35 0.34 0.32 0.30 0.30 0.30 0.33 0.37 0.40 0.47 0.48 0.38 0.25 0.17 0.17 0.17 0.23 0.40 0.48 0.35 0.27 0.24 0.30 0.46 0.71 0.97 1.08 1.14 1.14 1.08 0.98 0.94 0.95 0.91 0.87 0.85 0.83 0.83 0.82 0.85 0.88 0.91 0.94
0.35 0.31 0.27 0.26 0.27 0.30 0.34 0.35 0.36 0.42 0.53 0.60 0.55 0.32 0.23 0.22 0.25 0.46 0.59 0.43 0.36 0.38 0.40 0.46 0.61 0.83 0.98 1.07 1.09 1.07 1.03 1.02 1.01 1.01 0.98 0.95 0.92 0.93 0.89 0.84 0.88 0.95 0.99
0.29 0.24 0.20 0.19 0.21 0.27 0.30 0.30 0.35 0.46 0.58 0.70 0.73 0.49 0.32 0.30 0.36 0.61 0.74 0.59 0.51 0.51 0.50 0.52 0.59 0.75 0.91 1.03 1.06 1.04 1.07 1.06 1.08 1.07 1.04 1.01 0.96 0.96 0.97 0.95 0.96 1.00 0.95
0.25 0.21 0.17 0.15 0.20 0.24 0.27 0.32 0.37 0.49 0.62 0.71 0.67 0.44 0.32 0.33 0.44 0.66 0.84 0.75 0.66 0.65 0.62 0.59 0.63 0.75 0.85 0.96 0.99 0.98 1.01 1.08 1.08 1.07 1.05 1.05 1.02 0.99 1.01 1.04 1.02 1.05 1.04
0.21 0.18 0.17 0.18 0.21 0.25 0.26 0.34 0.42 0.55 0.66 0.72 0.61 0.42 0.37 0.43 0.54 0.70 0.77 0.74 0.70 0.67 0.64 0.65 0.71 0.80 0.86 0.92 0.95 0.99 1.03 1.07 1.07 1.08 1.12 1.12 1.11 1.09 1.10 1.09 1.06 1.07 1.10
0.20 0.18 0.18 0.19 0.22 0.21 0.26 0.35 0.41 0.50 0.62 0.69 0.60 0.54 0.54 0.63 0.66 0.71 0.77 0.77 0.74 0.71 0.67 0.71 0.76 0.78 0.81 0.84 0.83 0.89 0.96 0.97 0.97 1.00 1.08 1.12 1.13 1.11 1.08 1.04 1.01 1.03 1.06
0.19 0.19 0.18 0.19 0.20 0.23 0.28 0.33 0.37 0.42 0.54 0.61 0.59 0.64 0.68 0.72 0.70 0.72 0.76 0.76 0.76 0.77 0.76 0.74 0.74 0.73 0.74 0.76 0.77 0.78 0.79 0.82 0.84 0.88 0.93 1.00 1.04 1.07 1.06 1.01 1.01 1.01 1.03
0.21 0.21 0.20 0.22 0.23 0.25 0.29 0.34 0.40 0.47 0.53 0.57 0.63 0.67 0.72 0.72 0.72 0.76 0.75 0.74 0.76 0.76 0.72 0.70 0.72 0.73 0.74 0.70 0.65 0.62 0.63 0.62 0.66 0.74 0.79 0.88 0.92 0.97 0.98 0.96 0.98 1.02 1.02
0.21 0.26 0.28 0.30 0.31 0.32 0.35 0.40 0.46 0.49 0.52 0.55 0.61 0.69 0.73 0.73 0.74 0.76 0.73 0.70 0.72 0.70 0.66 0.64 0.63 0.66 0.66 0.62 0.56 0.53 0.50 0.47 0.50 0.58 0.62 0.72 0.82 0.87 0.91 0.95 0.93 0.97 0.97